Wind_Speed
14 14 13 14 15 16 17 18 17 17 16 14 13 13 12 12 11 10 8 7 6 5 4 3 3 5 4 4 3 3 3 3 3 3 3 4 4 4 5 5 5 6 6 5 4 4 3 3 2
14 13 13 14 15 16 18 18 18 17 16 15 13 12 12 12 11 10 10 9 7 6 5 4 4 4 4 4 4 4 3 3 2 3 4 4 3 3 3 4 5 5 5 5 4 4 3 3 3
14 14 15 16 16 17 18 18 18 17 16 15 14 13 13 12 11 11 10 9 8 6 5 4 4 4 4 4 4 4 4 3 3 4 4 4 4 4 3 4 4 5 5 5 4 4 3 3 3
13 14 14 16 17 18 19 19 19 18 17 15 15 14 13 12 11 10 10 9 8 7 7 5 5 4 3 4 3 3 3 3 3 3 3 4 4 4 4 4 5 6 5 5 4 4 4 4 3
14 14 15 16 18 18 18 18 18 18 18 16 16 15 14 13 12 11 10 9 8 8 7 6 5 4 3 3 3 2 2 2 2 2 3 4 4 4 5 5 6 7 6 6 5 5 5 4 4
13 14 15 16 18 18 18 18 19 18 18 16 16 16 15 14 13 12 11 10 8 7 7 6 5 4 3 2 2 1 2 1 2 2 3 4 5 5 5 6 7 8 8 7 6 5 5 4 4
13 13 15 16 17 18 18 18 19 19 18 17 16 16 16 15 13 12 11 10 9 7 7 6 5 4 3 2 1 0 1 1 2 3 3 4 5 6 6 6 7 7 8 8 7 7 6 5 5
12 13 13 15 16 17 17 17 18 18 17 17 16 16 16 15 14 12 12 11 9 9 9 8 6 5 3 2 2 1 1 2 2 3 4 4 5 6 6 6 7 8 8 9 8 8 7 6 5
11 11 12 13 15 15 15 16 17 17 17 16 16 16 15 15 14 12 11 11 10 9 8 8 7 5 4 3 2 1 1 2 2 3 3 4 5 5 5 6 6 7 8 9 8 8 8 7 6
10 10 11 11 12 13 14 15 16 16 16 16 16 16 16 15 14 12 11 10 10 9 8 7 6 6 5 4 3 2 1 1 2 2 3 4 4 4 5 5 6 8 8 9 9 9 9 8 7
8 8 9 10 11 11 12 14 15 15 15 15 16 16 16 15 14 12 11 11 11 9 8 7 7 6 6 5 4 3 2 1 0 2 3 3 4 4 4 5 5 6 7 8 8 9 9 8 7
6 7 8 9 10 10 11 12 13 14 14 15 15 15 14 14 13 12 11 11 11 10 8 7 7 6 6 5 4 3 3 2 1 1 2 3 3 4 4 4 5 6 7 7 8 8 8 8 7
4 5 6 7 8 9 10 11 12 12 12 13 14 13 13 14 13 13 12 12 12 11 9 8 7 6 6 5 4 3 3 3 3 2 1 2 3 4 4 5 6 6 6 7 7 7 8 8 8
4 4 4 4 6 8 10 11 11 12 12 12 12 13 13 13 13 13 12 11 11 10 10 8 7 6 6 5 4 3 3 3 3 2 1 1 2 2 3 5 5 6 6 6 7 8 8 8 9
3 4 3 3 4 6 9 10 11 12 12 13 13 12 12 12 12 13 13 12 11 11 10 8 7 6 5 5 4 3 3 3 3 2 1 1 1 1 2 4 4 4 5 6 7 8 8 8 9
3 2 2 2 2 4 7 9 9 10 11 12 11 11 11 12 12 13 13 12 12 11 10 8 7 6 6 5 4 3 2 2 2 2 1 1 1 2 2 3 3 4 4 5 6 7 7 7 8
2 1 0 1 1 3 5 7 8 8 9 11 11 10 11 11 11 12 13 13 12 11 10 9 8 7 5 5 5 3 2 3 3 3 1 1 0 1 2 3 3 3 4 5 6 6 7 7 7
3 2 1 1 1 3 4 5 6 7 8 9 10 10 10 10 11 11 12 12 12 11 10 9 7 6 5 5 4 3 3 3 3 2 2 2 1 1 2 3 3 3 4 4 5 5 6 7 7
5 4 3 2 3 4 4 6 6 6 7 8 8 9 9 10 10 11 11 11 11 11 10 9 7 7 6 5 4 3 2 2 2 2 2 3 2 1 1 2 3 3 4 5 5 6 6 6 7
7 7 6 5 6 6 5 6 6 6 7 7 7 8 8 9 9 10 10 10 11 11 11 10 8 7 5 5 4 3 2 2 1 1 2 2 2 2 2 2 3 4 4 5 5 6 7 7 8
9 8 7 7 7 7 7 6 6 7 7 7 7 7 7 7 8 8 9 10 11 11 11 9 8 7 6 5 3 3 3 3 2 2 2 3 3 2 3 3 3 4 4 5 6 6 6 7 8
9 9 9 9 9 9 9 9 8 8 7 8 8 7 7 7 7 8 8 9 10 10 10 10 8 7 6 4 4 4 3 3 3 3 3 4 4 3 3 3 4 5 5 6 6 7 7 7 8
10 9 10 10 10 10 9 10 8 8 8 8 8 7 6 6 6 7 8 9 10 10 10 10 9 7 6 4 4 4 4 4 4 4 4 4 4 4 3 4 5 6 6 7 7 8 8 9 9
10 9 10 10 10 10 10 10 9 9 8 8 7 7 7 7 7 8 8 10 10 10 9 10 9 8 6 6 5 5 5 5 5 5 5 5 5 6 6 6 7 7 7 7 7 8 9 10 10
12 11 11 11 11 11 11 11 10 10 9 8 8 8 8 8 9 9 9 10 9 9 9 9 9 8 7 7 6 6 6 6 6 6 6 7 7 7 8 8 7 7 8 8 9 9 9 10 12
12 12 11 11 11 12 12 13 13 12 11 11 10 10 9 9 10 10 10 9 9 9 9 9 9 9 8 8 8 8 8 7 7 8 8 8 8 8 8 9 9 10 10 10 10 10 10 11 11
13 13 12 12 13 14 14 13 12 12 11 11 11 11 10 11 11 11 11 9 10 9 10 10 10 10 10 9 9 10 10 9 9 9 9 10 10 10 10 10 10 10 10 11 12 12 12 12 12
15 14 13 14 15 15 15 13 13 12 12 12 12 12 12 12 12 12 12 11 11 10 11 10 11 11 11 11 11 12 12 11 11 11 12 12 12 13 13 12 11 11 11 11 12 13 13 13 13
17 17 16 16 17 17 16 15 14 14 14 14 14 14 14 14 14 14 13 12 12 12 12 12 11 12 12 13 13 14 14 13 12 12 13 13 14 14 14 14 13 13 13 14 14 14 14 14 14
19 18 18 18 18 18 18 17 15 15 15 15 15 15 15 15 15 15 14 14 14 14 14 14 13 14 15 15 15 15 15 14 13 13 14 14 14 15 16 15 15 15 15 16 16 16 16 16 16
Wind_Direction
71 68 67 67 65 65 63 58 54 50 47 45 45 42 40 40 40 42 42 41 38 35 41 78 106 105 118 116 115 122 126 129 139 151 161 161 171 180 173 171 175 182 187 192 191 186 181 178 173
71 69 67 68 68 67 62 58 53 49 46 44 43 41 41 41 42 43 42 41 41 40 46 76 104 106 113 119 123 133 130 141 162 171 171 172 180 182 175 179 184 185 182 186 189 189 177 168 157
73 72 71 70 70 67 63 58 54 49 47 46 44 43 43 43 41 39 40 42 43 49 58 76 102 109 108 121 124 128 132 138 166 182 176 181 189 189 186 190 189 185 182 186 190 189 186 185 177
78 75 72 69 66 64 62 58 55 50 46 44 44 44 43 42 39 39 39 41 43 51 64 75 94 104 103 116 124 130 137 150 165 186 188 191 196 205 205 198 199 191 186 188 189 186 192 197 198
81 76 73 69 66 63 61 58 54 48 43 42 44 43 41 38 38 39 41 42 40 47 58 73 81 90 88 106 124 132 142 151 174 187 197 204 206 208 208 199 196 196 199 197 193 195 189 195 197
83 76 73 70 66 63 61 57 53 48 42 40 42 41 38 36 38 34 37 40 39 42 55 61 72 72 73 85 91 122 149 157 190 208 203 214 208 210 209 200 199 202 199 194 194 197 193 195 194
81 77 72 68 63 59 57 55 51 48 43 40 40 39 39 37 37 36 37 38 37 42 42 45 59 60 63 64 50 106 163 167 179 191 195 213 209 206 200 198 199 199 197 196 195 196 191 189 188
79 76 71 65 60 56 55 51 50 48 43 40 40 38 37 37 35 35 37 36 35 36 38 42 47 51 52 53 57 75 161 196 198 197 194 204 210 207 201 202 201 200 198 201 201 201 202 202 199
80 76 67 63 58 54 51 48 47 47 44 41 39 36 34 35 35 36 37 33 31 34 37 39 41 39 46 56 49 77 148 205 217 218 209 209 206 201 197 203 204 203 200 203 203 203 205 209 207
80 71 65 60 55 52 49 48 47 45 44 39 37 36 34 32 33 34 33 28 26 32 40 40 42 40 42 53 51 58 78 159 211 218 223 216 215 202 193 202 210 208 206 205 204 204 209 210 211
82 71 62 54 52 51 48 46 44 43 41 37 36 34 32 31 31 32 31 28 27 33 42 44 44 42 39 46 55 66 70 66 208 216 225 223 221 202 191 198 210 205 198 201 207 210 212 211 215
86 70 58 52 49 48 44 43 41 38 36 36 35 30 28 27 29 31 33 31 30 38 41 41 39 36 33 41 55 64 66 66 80 194 216 209 212 212 205 209 208 201 199 206 206 208 210 211 216
92 71 59 57 50 48 41 38 36 33 32 35 34 30 29 28 30 31 31 29 30 35 38 31 27 28 29 38 52 58 60 67 75 90 151 182 203 221 221 208 207 204 205 208 207 206 211 215 219
103 76 65 63 51 43 39 37 32 30 30 33 33 32 32 30 28 28 24 21 24 27 27 23 28 32 34 39 45 49 53 61 65 78 150 180 214 236 209 205 207 212 216 218 218 219 218 221 220
126 94 76 68 49 38 35 35 31 29 30 29 29 30 31 26 25 23 22 22 19 18 21 25 32 38 39 38 35 40 52 58 50 59 109 169 211 190 188 200 214 220 222 225 225 224 225 227 225
149 126 87 82 44 25 28 31 29 31 29 25 25 28 28 25 25 22 20 20 18 17 21 26 28 34 37 39 35 34 43 47 43 54 87 135 199 176 182 198 213 216 231 234 231 231 232 230 229
185 196 128 105 35 12 16 19 22 23 24 25 26 26 23 20 20 20 20 19 17 16 18 25 26 28 31 29 27 28 43 54 56 59 71 107 196 187 200 214 219 224 228 231 230 233 233 229 229
224 242 257 294 297 339 354 359 10 11 11 14 17 18 15 16 15 15 17 16 15 15 15 19 22 22 22 22 25 36 58 62 64 68 61 52 57 193 224 229 227 222 225 226 230 232 231 229 226
248 255 271 293 295 310 325 331 338 351 357 359 1 6 10 12 13 14 14 13 14 14 13 10 11 11 12 19 25 42 56 53 61 66 51 34 26 331 263 241 238 231 224 229 236 235 234 233 234
255 263 269 278 289 304 306 309 317 330 343 346 349 354 357 0 8 11 10 9 8 9 11 12 11 12 10 16 25 29 42 30 23 40 32 6 357 344 316 283 264 246 238 240 241 237 245 243 244
255 263 267 270 277 293 292 291 304 313 327 333 338 343 344 349 358 6 6 4 3 1 2 6 6 7 3 360 8 17 9 5 0 348 352 339 335 313 290 285 269 248 242 245 246 251 253 251 250
258 262 264 267 272 285 292 298 304 309 313 322 327 332 334 340 350 358 358 356 352 350 352 356 357 353 355 358 354 344 345 343 337 321 325 325 322 322 293 292 275 261 260 258 260 257 258 257 255
261 265 266 271 276 282 290 300 304 304 311 318 330 331 327 331 339 346 344 343 344 345 346 350 351 347 348 350 348 343 333 323 319 314 312 315 305 309 294 295 290 274 269 268 268 266 267 264 261
257 265 270 272 277 278 288 294 299 300 308 315 320 326 324 323 326 329 333 337 340 344 345 345 348 346 338 335 333 337 335 326 318 310 302 300 303 307 297 288 287 279 272 269 269 270 268 265 263
257 267 271 273 278 281 285 287 294 301 301 307 303 306 312 315 318 320 325 333 339 341 341 339 340 339 333 325 326 325 321 315 309 307 305 300 303 306 302 292 286 282 277 273 274 274 269 264 263
262 267 271 278 280 283 283 286 292 297 296 297 298 301 305 305 310 314 318 322 329 334 335 335 334 333 328 320 317 317 315 310 306 301 301 301 302 304 303 300 291 285 283 280 278 282 280 275 271
256 262 267 274 279 284 285 288 291 294 294 293 293 296 297 299 301 305 306 307 316 322 323 322 323 323 321 316 307 307 313 308 302 295 295 296 297 298 297 296 293 289 284 280 279 281 283 282 277
256 260 266 272 282 287 288 289 294 291 295 293 293 294 293 295 295 295 297 299 307 311 314 315 314 313 311 309 306 304 303 304 295 290 292 294 293 295 292 290 288 287 287 287 284 280 280 280 280
258 260 265 272 280 286 290 291 293 290 289 291 291 290 291 293 293 290 292 297 301 303 307 309 310 309 308 306 305 305 305 302 292 288 290 291 293 295 291 289 287 285 286 285 285 285 283 281 281
258 262 266 272 279 283 287 290 290 291 288 289 288 287 287 290 292 289 289 292 296 298 300 301 301 303 303 302 304 304 306 302 295 289 289 290 291 292 292 289 286 283 283 283 282 282 282 281 282
Height
5893 5892 5892 5892 5892 5890 5888 5887 5886 5885 5885 5884 5883 5882 5881 5881 5881 5882 5880 5877 5877 5876 5875 5875 5875 5876 5876 5877 5877 5878 5878 5878 5878 5878 5879 5880 5881 5882 5883 5884 5885 5886 5887 5888 5890 5891 5892 5893 5893
5894 5894 5895 5893 5892 5891 5890 5889 5888 5887 5886 5885 5884 5883 5882 5881 5881 5880 5879 5878 5877 5877 5876 5876 5876 5876 5876 5877 5877 5877 5878 5878 5878 5879 5879 5880 5881 5882 5883 5884 5885 5886 5887 5888 5889 5891 5892 5893 5894
5896 5896 5896 5895 5893 5892 5891 5890 5889 5888 5887 5886 5885 5884 5883 5882 5882 5881 5880 5879 5878 5877 5877 5876 5876 5876 5876 5877 5877 5877 5877 5877 5878 5878 5879 5880 5880 5881 5882 5883 5884 5885 5886 5888 5889 5890 5892 5893 5894
5898 5898 5898 5897 5895 5894 5893 5892 5891 5890 5889 5888 5886 5886 5884 5884 5882 5882 5881 5880 5879 5878 5877 5877 5876 5876 5876 5876 5877 5877 5877 5877 5878 5878 5878 5879 5880 5880 5881 5882 5883 5884 5886 5887 5889 5890 5891 5893 5894
5900 5900 5899 5898 5896 5896 5895 5894 5892 5891 5890 5889 5888 5887 5885 5884 5883 5882 5881 5880 5880 5879 5878 5877 5877 5876 5876 5876 5876 5876 5877 5877 5877 5877 5878 5878 5878 5879 5880 5880 5881 5883 5885 5887 5888 5890 5891 5892 5893
5902 5901 5901 5899 5898 5897 5896 5895 5894 5893 5892 5891 5889 5888 5887 5885 5884 5883 5882 5881 5880 5879 5878 5877 5877 5877 5876 5876 5876 5876 5876 5877 5877 5877 5877 5877 5877 5877 5878 5879 5880 5882 5884 5886 5888 5889 5891 5892 5893
5904 5903 5902 5901 5900 5899 5898 5897 5895 5894 5893 5892 5891 5889 5888 5886 5885 5884 5883 5881 5880 5879 5878 5877 5877 5877 5876 5876 5876 5876 5876 5876 5876 5876 5876 5876 5876 5877 5877 5878 5880 5881 5883 5885 5887 5889 5890 5892 5893
5905 5905 5903 5903 5902 5901 5900 5899 5897 5896 5895 5894 5892 5891 5889 5888 5886 5885 5883 5882 5880 5879 5878 5878 5877 5877 5876 5876 5876 5876 5876 5876 5876 5876 5876 5875 5875 5876 5877 5878 5879 5880 5882 5884 5886 5888 5890 5891 5892
5906 5907 5905 5904 5903 5903 5902 5901 5899 5898 5896 5895 5893 5892 5891 5889 5887 5886 5884 5882 5880 5879 5878 5878 5877 5877 5876 5876 5875 5875 5875 5875 5875 5875 5875 5875 5875 5875 5876 5877 5878 5879 5881 5883 5885 5887 5889 5890 5891
5908 5908 5907 5906 5905 5904 5903 5902 5901 5900 5898 5896 5895 5893 5892 5890 5888 5887 5885 5883 5881 5879 5878 5878 5878 5877 5876 5876 5875 5875 5875 5875 5875 5875 5874 5874 5875 5875 5875 5876 5877 5878 5880 5882 5884 5886 5888 5889 5890
5909 5909 5908 5908 5906 5905 5905 5904 5902 5901 5900 5898 5896 5895 5893 5891 5889 5888 5886 5884 5882 5880 5879 5878 5878 5877 5876 5876 5875 5875 5875 5874 5874 5874 5874 5874 5874 5875 5875 5875 5876 5877 5879 5881 5883 5885 5886 5888 5889
5911 5910 5910 5909 5908 5907 5906 5905 5904 5903 5902 5900 5898 5896 5894 5893 5891 5889 5887 5886 5883 5881 5880 5879 5878 5878 5877 5876 5875 5875 5874 5874 5874 5874 5874 5874 5874 5874 5875 5876 5876 5877 5879 5880 5882 5883 5885 5887 5888
5912 5911 5910 5910 5909 5908 5907 5906 5905 5904 5902 5901 5899 5897 5896 5894 5892 5890 5889 5887 5885 5882 5881 5880 5879 5878 5877 5876 5875 5875 5874 5874 5874 5874 5874 5873 5874 5874 5875 5876 5876 5877 5879 5880 5881 5882 5884 5885 5887
5912 5912 5912 5911 5910 5909 5908 5907 5907 5905 5904 5902 5901 5899 5897 5895 5893 5891 5889 5888 5886 5884 5882 5881 5879 5878 5877 5876 5875 5875 5874 5874 5874 5873 5873 5873 5874 5874 5874 5875 5876 5877 5878 5879 5880 5882 5883 5884 5886
5913 5913 5913 5912 5910 5909 5909 5908 5907 5906 5905 5904 5902 5900 5898 5896 5894 5892 5890 5888 5887 5885 5883 5882 5880 5879 5878 5877 5876 5875 5874 5874 5874 5874 5874 5874 5874 5874 5875 5875 5876 5877 5878 5879 5880 5881 5882 5883 5884
5913 5913 5913 5913 5911 5910 5911 5910 5908 5907 5906 5905 5903 5901 5899 5897 5895 5893 5891 5889 5887 5885 5884 5882 5881 5879 5878 5877 5876 5875 5875 5875 5874 5874 5874 5874 5874 5874 5875 5876 5876 5877 5877 5878 5879 5880 5880 5882 5883
5912 5912 5912 5913 5912 5911 5911 5909 5909 5908 5907 5906 5904 5903 5901 5899 5897 5894 5892 5890 5888 5886 5884 5882 5881 5879 5878 5877 5876 5875 5875 5875 5875 5875 5875 5875 5874 5875 5875 5876 5876 5876 5877 5877 5878 5879 5879 5880 5881
5912 5912 5912 5912 5912 5911 5910 5910 5909 5908 5907 5906 5904 5903 5901 5899 5897 5895 5893 5891 5889 5887 5885 5883 5881 5880 5879 5877 5876 5875 5875 5876 5876 5876 5875 5875 5875 5875 5876 5876 5876 5876 5876 5877 5877 5878 5879 5879 5880
5911 5912 5912 5912 5912 5911 5911 5910 5909 5908 5907 5906 5904 5903 5901 5900 5898 5896 5893 5891 5889 5887 5885 5883 5881 5880 5879 5878 5877 5876 5876 5876 5877 5876 5876 5876 5876 5876 5876 5875 5876 5876 5876 5876 5877 5877 5878 5879 5879
5910 5911 5911 5911 5911 5911 5910 5910 5910 5908 5907 5906 5904 5903 5901 5899 5898 5896 5894 5892 5890 5888 5885 5883 5882 5880 5879 5878 5878 5877 5877 5877 5877 5877 5877 5876 5876 5876 5876 5875 5875 5875 5876 5876 5876 5877 5877 5878 5879
5910 5910 5910 5910 5910 5909 5909 5910 5909 5908 5907 5905 5904 5903 5901 5899 5898 5896 5894 5892 5890 5888 5885 5883 5882 5880 5879 5879 5878 5878 5877 5877 5877 5877 5877 5877 5876 5876 5875 5875 5875 5874 5875 5875 5875 5876 5876 5877 5877
5909 5909 5909 5908 5908 5908 5909 5908 5908 5907 5906 5905 5904 5902 5901 5899 5897 5896 5894 5892 5890 5887 5885 5883 5881 5880 5879 5879 5878 5878 5878 5877 5877 5877 5876 5876 5876 5875 5875 5874 5874 5874 5874 5874 5874 5874 5874 5875 5875
5907 5907 5907 5907 5906 5906 5906 5906 5907 5906 5905 5904 5903 5901 5900 5899 5897 5895 5894 5892 5889 5887 5884 5882 5881 5880 5879 5879 5878 5878 5877 5877 5877 5876 5876 5875 5875 5874 5874 5874 5873 5873 5873 5873 5872 5873 5873 5873 5873
5904 5905 5905 5905 5905 5905 5905 5905 5905 5905 5904 5903 5902 5901 5899 5898 5896 5895 5893 5891 5889 5886 5884 5882 5881 5880 5879 5878 5878 5877 5877 5877 5876 5876 5875 5874 5874 5873 5873 5872 5872 5871 5871 5871 5870 5870 5870 5870 5870
5903 5904 5904 5903 5903 5903 5903 5903 5904 5903 5902 5901 5900 5899 5898 5896 5895 5893 5892 5890 5888 5886 5884 5882 5881 5880 5879 5878 5877 5877 5876 5876 5875 5875 5874 5873 5873 5872 5871 5870 5870 5870 5869 5869 5868 5868 5867 5867 5867
5900 5902 5902 5902 5901 5901 5901 5901 5902 5901 5900 5899 5898 5897 5896 5894 5893 5891 5890 5889 5887 5885 5884 5882 5881 5879 5878 5877 5877 5875 5875 5874 5874 5873 5873 5872 5871 5870 5869 5869 5868 5867 5867 5867 5866 5865 5865 5864 5864
5898 5898 5899 5899 5899 5898 5898 5899 5899 5898 5897 5896 5895 5894 5893 5892 5891 5889 5888 5887 5886 5884 5883 5881 5880 5878 5877 5876 5875 5874 5873 5872 5872 5871 5870 5870 5869 5868 5867 5866 5866 5865 5864 5864 5863 5863 5862 5862 5861
5896 5896 5897 5896 5896 5895 5896 5896 5896 5895 5894 5894 5893 5892 5891 5890 5888 5887 5885 5885 5884 5882 5881 5879 5878 5877 5876 5875 5874 5872 5871 5870 5869 5868 5868 5867 5866 5865 5865 5864 5863 5862 5861 5861 5860 5860 5859 5858 5857
5893 5893 5893 5893 5893 5893 5892 5895 5893 5892 5891 5890 5889 5888 5887 5886 5885 5884 5883 5882 5881 5880 5879 5877 5876 5875 5873 5872 5871 5870 5868 5867 5865 5864 5864 5864 5863 5862 5861 5860 5859 5858 5858 5857 5857 5856 5855 5854 5853
5888 5889 5890 5890 5890 5889 5889 5892 5889 5889 5887 5887 5886 5885 5884 5883 5882 5881 5880 5879 5878 5877 5876 5874 5873 5872 5871 5869 5868 5867 5865 5864 5862 5861 5861 5860 5859 5858 5857 5856 5855 5854 5854 5853 5853 5852 5851 5850 5850